Location: ????????
(48.4751°N, 37.6926°E)
Time: 02:43:27
(UTC+00:00)

Cosmos 1634 Rocket - Pass Details

Date: 20 January 2021
Orbit: 960 x 991 km, 82.9° (Epoch: 24 February)

Event Time Altitude Azimuth Distance (km) Brightness Sun altitude
Rises 14:38:08 0° 351° (N) 3,674 6.8 -5.1°
Reaches altitude 10° 14:40:40 10° 354° (N) 2,727 6.2 -5.5°
Maximum altitude 14:46:55 75° 80° (E) 1,015 4.0 -6.4°
Drops below altitude 10° 14:53:11 10° 165° (SSE) 2,730 6.5 -7.4°
Sets 14:55:42 0° 168° (SSE) 3,678 7.1 -7.8°
